Ozark, AL

11:38 PM CDT on May 26, 2018 (GMT -0500)
Cairns Army Air Field

Weather History for KOZR - January, 2013

Change the Weather History Date:

Saturday, January 12, 2013

  Actual Average Record
Temperature  
Mean Temperature 69 °F -  
Max Temperature 78 °F 58 °F 78 °F (2013)
Min Temperature 60 °F 36 °F 24 °F (2004)
Cooling Degree Days 4    
Growing Degree Days 19 (Base 50)    
Moisture  
Dew Point 62 °F    
Average Humidity 94    
Maximum Humidity 100    
Minimum Humidity 51    
Precipitation  
Precipitation 0.00 in - - ()
Sea Level Pressure  
Sea Level Pressure 30.11 in    
Wind  
Wind Speed 2 mph (SSE)    
Max Wind Speed 15 mph    
Max Gust Speed -    
Visibility 5 miles    
Events Fog    
Averages and records for this station are not official NWS values.
T = Trace of Precipitation, MM = Missing Value Source: NWS Daily Summary

Daily Weather History Graph

Daily Weather History Graph

Search for Another Location

Airport or City:

Astronomy

Jan. 12, 2013 Rise Set
Actual Time 6:42 AM CST 5:00 PM CST
Civil Twilight 6:16 AM CST 5:26 PM CST
Nautical Twilight 5:46 AM CST 5:56 PM CST
Astronomical Twilight 5:17 AM CST 6:25 PM CST
Moon 7:07 AM CST (1/12) 6:20 PM CST (1/12)
Length of Visible Light 11h 10m
Length of Day
10h 17m
New Moon, 1% of the Moon is Illuminated
Jan 12
New Moon
Jan 18
First Quarter
Jan 26
Full
Feb 3
Last Quarter
Feb 10
New

Hourly Weather History & Observations

Time (CST) Temp. Dew Point Humidity Pressure Visibility Wind Dir Wind Speed Gust Speed Precip Events Conditions
12:55 AM 63.3 °F 63.0 °F 99% 30.14 in 0.2 mi Calm Calm - N/A Fog Fog
1:55 AM 62.8 °F 62.4 °F 99% 30.14 in 0.2 mi Calm Calm - N/A Fog Fog
1:56 AM 62.6 °F 62.6 °F 100% 30.14 in 0.2 mi Calm Calm - N/A Fog Fog
2:06 AM 62.6 °F 62.6 °F 100% 30.13 in 0.2 mi Calm Calm - N/A Fog Fog
2:08 AM 62.6 °F 62.6 °F 100% 30.13 in 0.2 mi Calm Calm - N/A Fog Fog
2:11 AM 62.6 °F 62.6 °F 100% 30.14 in 0.2 mi Calm Calm - N/A Fog Fog
2:15 AM 62.6 °F 62.6 °F 100% 30.14 in 0.5 mi Calm Calm - N/A Fog Fog
2:38 AM 62.6 °F 62.6 °F 100% 30.12 in 0.5 mi East 4.6 mph - N/A Fog Fog
2:44 AM 62.6 °F 62.6 °F 100% 30.13 in 0.5 mi East 3.5 mph - N/A Fog Fog
2:46 AM 62.6 °F 62.6 °F 100% 30.13 in 0.2 mi Variable 3.5 mph - N/A Fog Fog
2:55 AM 62.4 °F 62.4 °F 100% 30.12 in 0.2 mi East 3.5 mph - N/A Fog Fog
2:56 AM 62.6 °F 62.6 °F 100% 30.12 in 0.5 mi East 3.5 mph - N/A Fog Fog
3:00 AM 62.6 °F 62.6 °F 100% 30.13 in 0.2 mi ESE 3.5 mph - N/A Fog Fog
3:06 AM 62.6 °F 62.6 °F 100% 30.13 in 0.2 mi ESE 3.5 mph - N/A Fog Fog
3:07 AM 62.6 °F 62.6 °F 100% 30.13 in 0.2 mi ESE 3.5 mph - N/A Fog Fog
3:44 AM 62.6 °F 62.6 °F 100% 30.12 in 0.2 mi Calm Calm - N/A Fog Fog
3:50 AM 62.6 °F 62.6 °F 100% 30.12 in 0.5 mi Calm Calm - N/A Fog Fog
3:53 AM 62.6 °F 62.6 °F 100% 30.12 in 0.5 mi Calm Calm - N/A Fog Fog
3:55 AM 62.8 °F 62.8 °F 100% 30.11 in 0.5 mi Calm Calm - N/A Fog Fog
4:00 AM 62.6 °F 62.6 °F 100% 30.11 in 0.8 mi ESE 3.5 mph - N/A   Mist
4:08 AM 62.6 °F 62.6 °F 100% 30.10 in 0.5 mi SE 4.6 mph - N/A Fog Fog
4:18 AM 62.6 °F 62.6 °F 100% 30.10 in 0.2 mi ESE 3.5 mph - N/A Fog Fog
4:49 AM 62.6 °F 62.6 °F 100% 30.10 in 0.5 mi Calm Calm - N/A Fog Fog
4:51 AM 62.6 °F 62.6 °F 100% 30.10 in 0.2 mi Calm Calm - N/A Fog Fog
4:55 AM 62.6 °F 62.6 °F 100% 30.10 in 0.2 mi Calm Calm - N/A Fog Fog
4:57 AM 62.6 °F 62.6 °F 100% 30.10 in 0.5 mi Calm Calm - N/A Fog Fog
5:04 AM 62.6 °F 62.6 °F 100% 30.11 in 0.8 mi Calm Calm - N/A   Mist
5:12 AM 62.6 °F 62.6 °F 100% 30.10 in 1.0 mi Calm Calm - N/A   Mist
5:17 AM 62.6 °F 62.6 °F 100% 30.10 in 1.2 mi Calm Calm - N/A   Overcast
5:21 AM 62.6 °F 62.6 °F 100% 30.11 in 1.5 mi Calm Calm - N/A   Overcast
5:24 AM 62.6 °F 62.6 °F 100% 30.11 in 1.5 mi Calm Calm - N/A   Overcast
5:31 AM 62.6 °F 62.6 °F 100% 30.11 in 1.2 mi Calm Calm - N/A   Overcast
5:32 AM 62.6 °F 62.6 °F 100% 30.11 in 1.0 mi Calm Calm - N/A   Mist
5:35 AM 62.6 °F 62.6 °F 100% 30.11 in 0.8 mi Calm Calm - N/A   Mist
5:39 AM 62.6 °F 62.6 °F 100% 30.12 in 0.5 mi Calm Calm - N/A Fog Fog
5:43 AM 62.6 °F 62.6 °F 100% 30.12 in 0.8 mi Calm Calm - N/A   Mist
5:49 AM 62.6 °F 62.6 °F 100% 30.12 in 1.0 mi Calm Calm - N/A   Mist
5:50 AM 62.6 °F 62.6 °F 100% 30.12 in 1.2 mi Calm Calm - N/A   Overcast
5:51 AM 62.6 °F 62.6 °F 100% 30.12 in 1.5 mi Calm Calm - N/A   Overcast
5:53 AM 62.6 °F 62.6 °F 100% 30.12 in 2.5 mi ESE 3.5 mph - N/A   Overcast
5:54 AM 62.6 °F 62.6 °F 100% 30.12 in 3.0 mi Calm Calm - N/A   Overcast
5:55 AM 62.2 °F 62.2 °F 100% 30.12 in 5.0 mi Calm Calm - N/A   Overcast
6:03 AM 62.6 °F 62.6 °F 100% 30.13 in 10.0 mi Calm Calm - N/A   Overcast
6:55 AM 61.7 °F 61.3 °F 99% 30.14 in 7.0 mi SSE 5.8 mph - N/A   Overcast
7:17 AM 60.8 °F 60.8 °F 100% 30.14 in 10.0 mi South 8.1 mph - N/A   Overcast
7:22 AM 60.8 °F 60.8 °F 100% 30.15 in 10.0 mi South 8.1 mph - N/A   Overcast
7:55 AM 61.3 °F 61.2 °F 99% 30.15 in 10.0 mi SSE 3.5 mph - N/A   Overcast
8:24 AM 60.8 °F 60.8 °F 100% 30.17 in 10.0 mi SE 6.9 mph - N/A   Overcast
8:55 AM 61.9 °F 61.5 °F 99% 30.17 in 10.0 mi SSE 5.8 mph - N/A   Overcast
9:05 AM 62.6 °F 60.8 °F 94% 30.17 in 10.0 mi SSE 6.9 mph - N/A   Overcast
9:29 AM 62.6 °F 62.6 °F 100% 30.17 in 10.0 mi SE 6.9 mph - N/A   Overcast
9:55 AM 64.9 °F 64.4 °F 98% 30.17 in 10.0 mi South 5.8 mph - N/A   Overcast
9:59 AM 64.4 °F 64.4 °F 100% 30.17 in 10.0 mi South 4.6 mph - N/A   Mostly Cloudy
10:09 AM 66.2 °F 64.4 °F 94% 30.17 in 10.0 mi Variable 3.5 mph - N/A   Mostly Cloudy
10:14 AM 66.2 °F 64.4 °F 94% 30.17 in 10.0 mi Variable 3.5 mph - N/A   Scattered Clouds
10:55 AM 70.3 °F 62.6 °F 76% 30.15 in 10.0 mi Variable 3.5 mph - N/A   Clear
11:55 AM 74.3 °F 63.0 °F 68% 30.12 in 10.0 mi SSE 8.1 mph - N/A   Clear
12:55 PM 77.0 °F 60.4 °F 56% 30.09 in 10.0 mi South 13.8 mph - N/A   Scattered Clouds
1:55 PM 78.1 °F 60.3 °F 54% 30.07 in 10.0 mi South 15.0 mph - N/A   Partly Cloudy
2:55 PM 77.7 °F 58.5 °F 51% 30.06 in 10.0 mi South 12.7 mph - N/A   Partly Cloudy
3:55 PM 75.0 °F 58.5 °F 56% 30.06 in 10.0 mi South 6.9 mph - N/A   Clear
4:55 PM 72.5 °F 59.2 °F 63% 30.06 in 10.0 mi South 6.9 mph - N/A   Clear
5:55 PM 69.4 °F 59.0 °F 69% 30.06 in 10.0 mi SSE 3.5 mph - N/A   Clear
6:55 PM 67.5 °F 59.5 °F 76% 30.06 in 10.0 mi South 3.5 mph - N/A   Partly Cloudy
7:55 PM 66.6 °F 62.8 °F 88% 30.05 in 10.0 mi South 8.1 mph - N/A   Clear
8:37 PM 66.2 °F 64.4 °F 94% 30.08 in 10.0 mi South 5.8 mph - N/A   Mostly Cloudy
8:39 PM 66.2 °F 64.4 °F 94% 30.08 in 10.0 mi South 5.8 mph - N/A   Scattered Clouds
8:44 PM 66.2 °F 64.4 °F 94% 30.08 in 10.0 mi South 5.8 mph - N/A   Mostly Cloudy
8:50 PM 66.2 °F 64.4 °F 94% 30.07 in 10.0 mi South 6.9 mph - N/A   Scattered Clouds
8:55 PM 66.7 °F 64.0 °F 91% 30.07 in 10.0 mi South 6.9 mph - N/A   Scattered Clouds
9:55 PM 65.1 °F 63.5 °F 94% 30.06 in 10.0 mi SE 4.6 mph - N/A   Clear
10:55 PM 64.6 °F 63.5 °F 96% 30.06 in 10.0 mi SSE 4.6 mph - N/A   Partly Cloudy
11:14 PM 64.4 °F 62.6 °F 94% 30.05 in 10.0 mi SSE 3.5 mph - N/A   Mostly Cloudy
11:28 PM 64.4 °F 62.6 °F 94% 30.05 in 10.0 mi SSE 3.5 mph - N/A   Scattered Clouds
11:55 PM 64.2 °F 63.5 °F 98% 30.04 in 10.0 mi South 3.5 mph - N/A   Scattered Clouds
11:58 PM 64.4 °F 64.4 °F 100% 30.04 in 10.0 mi SSE 3.5 mph - N/A   Mostly Cloudy